Weather History for Sterling, IL

Change the Weather History Date:

Thursday, February 13, 2014

  Actual Average Record
Temperature  
Mean Temperature 24 °F -  
Max Temperature 37 °F 33 °F 44 °F (2006)
Min Temperature 10 °F 19 °F -4 °F (2008)
Degree Days  
Heating Degree Days 42    
Moisture  
Dew Point 14 °F    
Average Humidity 72    
Maximum Humidity 86    
Minimum Humidity 55    
Precipitation  
Precipitation 0.00 in - - ()
Sea Level Pressure  
Sea Level Pressure 29.73 in    
Wind  
Wind Speed 7 mph (SW)    
Max Wind Speed 30 mph    
Max Gust Speed 37 mph    
Visibility 9 miles    
Events      
Averages and records for this station are not official NWS values.
T = Trace of Precipitation, MM = Missing Value Source: NWS Daily Summary

Daily Weather History Graph

Daily Weather History Graph

Search for Another Location

Airport:

Trip Planner

Search our weather history database for the weather conditions in past years. The results will help you decide how hot, cold, wet, or windy it might be!

Date:

Astronomy

Feb. 13, 2014 Rise Set
Actual Time 6:56 AM CST 5:29 PM CST
Civil Twilight 6:28 AM CST 5:58 PM CST
Nautical Twilight 5:55 AM CST 6:30 PM CST
Astronomical Twilight 5:23 AM CST 7:03 PM CST
Moon 4:38 PM CST (2/13) 5:50 AM CST (2/13)
Length of Visible Light 11h 30m
Length of Day
10h 32m
Waxing Gibbous, 99% of the Moon is Illuminated
Feb 13
Waxing Gibbous
Feb 14
Full
Feb 22
Last Quarter
Mar 1
New
Mar 8
First Quarter

Hourly Weather History & Observations

Time (CST) Temp. Windchill Dew Point Humidity Pressure Visibility Wind Dir Wind Speed Gust Speed Precip Events Conditions
12:15 AM 21.2 °F - 14.0 °F 74% 29.98 in 10.0 mi Calm Calm - N/A   Overcast
12:35 AM 19.4 °F 12.8 °F 15.8 °F 86% 29.96 in 10.0 mi SSE 4.6 mph - N/A   Overcast
12:55 AM 19.4 °F 12.8 °F 14.0 °F 80% 29.95 in 10.0 mi SSE 4.6 mph - N/A   Overcast
1:15 AM 19.4 °F - 14.0 °F 80% 29.96 in 10.0 mi Calm Calm - N/A   Overcast
1:35 AM 19.4 °F 12.8 °F 14.0 °F 80% 29.95 in 10.0 mi South 4.6 mph - N/A   Overcast
1:55 AM 19.4 °F 14.3 °F 12.2 °F 74% 29.95 in 10.0 mi SSW 3.5 mph - N/A   Overcast
2:15 AM 19.4 °F 11.5 °F 14.0 °F 80% 29.95 in 10.0 mi South 5.8 mph - N/A   Overcast
2:35 AM 19.4 °F 9.5 °F 12.2 °F 74% 29.93 in 10.0 mi SSE 8.1 mph - N/A   Overcast
2:55 AM 17.6 °F 7.3 °F 12.2 °F 79% 29.92 in 10.0 mi SSE 8.1 mph - N/A   Scattered Clouds
3:15 AM 17.6 °F 7.3 °F 10.4 °F 73% 29.91 in 10.0 mi SSE 8.1 mph - N/A   Clear
3:35 AM 15.8 °F 4.2 °F 8.6 °F 73% 29.90 in 10.0 mi SSE 9.2 mph - N/A   Clear
3:55 AM 15.8 °F 6.1 °F 8.6 °F 73% 29.90 in 10.0 mi SSE 6.9 mph - N/A   Clear
4:15 AM 14.0 °F - 6.8 °F 73% 29.90 in 10.0 mi Calm Calm - N/A   Clear
4:35 AM 12.2 °F - 6.8 °F 79% 29.91 in 10.0 mi Calm Calm - N/A   Clear
4:55 AM 12.2 °F - 3.2 °F 67% 29.91 in 10.0 mi Calm Calm - N/A   Clear
5:15 AM 12.2 °F 2.9 °F 6.8 °F 79% 29.90 in 10.0 mi SSE 5.8 mph - N/A   Clear
5:35 AM 12.2 °F 2.9 °F 6.8 °F 79% 29.88 in 10.0 mi SSE 5.8 mph - N/A   Clear
5:55 AM 12.2 °F 1.7 °F 6.8 °F 79% 29.87 in 9.0 mi SSE 6.9 mph - N/A   Clear
6:15 AM 10.4 °F 0.8 °F 5.0 °F 79% 29.86 in 8.0 mi SSE 5.8 mph - N/A   Clear
6:35 AM 12.2 °F 6.1 °F 6.8 °F 79% 29.84 in 10.0 mi South 3.5 mph - N/A   Clear
6:55 AM 12.2 °F - 5.0 °F 73% 29.84 in 9.0 mi Calm Calm - N/A   Clear
7:15 AM 12.2 °F 2.9 °F 5.0 °F 73% 29.82 in 9.0 mi South 5.8 mph - N/A   Clear
7:35 AM 12.2 °F 4.3 °F 5.0 °F 73% 29.84 in 9.0 mi SSW 4.6 mph - N/A   Scattered Clouds
7:55 AM 15.8 °F 8.6 °F 6.8 °F 68% 29.83 in 10.0 mi South 4.6 mph - N/A   Partly Cloudy
8:15 AM 15.8 °F 8.6 °F 6.8 °F 68% 29.81 in 10.0 mi SSW 4.6 mph - N/A   Partly Cloudy
8:35 AM 17.6 °F 8.2 °F 8.6 °F 68% 29.80 in 10.0 mi SSW 6.9 mph - N/A   Mostly Cloudy
8:55 AM 19.4 °F 11.5 °F 10.4 °F 68% 29.77 in 10.0 mi South 5.8 mph - N/A   Mostly Cloudy
9:15 AM 19.4 °F 12.8 °F 10.4 °F 68% 29.78 in 10.0 mi SW 4.6 mph - N/A   Mostly Cloudy
9:35 AM 21.2 °F 13.6 °F 10.4 °F 63% 29.77 in 10.0 mi SW 5.8 mph - N/A   Overcast
9:55 AM 23.0 °F 18.4 °F 10.4 °F 59% 29.76 in 10.0 mi SW 3.5 mph - N/A   Mostly Cloudy
10:15 AM 23.0 °F 17.0 °F 12.2 °F 63% 29.75 in 10.0 mi SSW 4.6 mph - N/A   Overcast
10:35 AM 23.0 °F 17.0 °F 12.2 °F 63% 29.74 in 10.0 mi SW 4.6 mph - N/A   Overcast
10:55 AM 24.8 °F 19.1 °F 12.2 °F 59% 29.73 in 10.0 mi SW 4.6 mph - N/A   Mostly Cloudy
11:15 AM 26.6 °F 19.1 °F 12.2 °F 55% 29.70 in 10.0 mi South 6.9 mph - N/A   Overcast
11:35 AM 28.4 °F 21.2 °F 15.8 °F 59% 29.69 in 10.0 mi SSW 6.9 mph - N/A   Scattered Clouds
11:55 AM 28.4 °F 19.7 °F 15.8 °F 59% 29.66 in 10.0 mi South 9.2 mph - N/A   Clear
12:15 PM 30.2 °F 23.4 °F 17.6 °F 60% 29.65 in 10.0 mi WSW 6.9 mph - N/A   Clear
12:35 PM 30.2 °F 23.4 °F 21.2 °F 69% 29.63 in 10.0 mi WSW 6.9 mph - N/A   Clear
12:55 PM 32.0 °F 25.6 °F 23.0 °F 69% 29.62 in 9.0 mi SW 6.9 mph - N/A   Clear
1:35 PM 33.8 °F 25.8 °F 24.8 °F 70% 29.59 in 9.0 mi WSW 10.4 mph - N/A   Clear
1:55 PM 33.8 °F 27.0 °F 24.8 °F 70% 29.58 in 8.0 mi WSW 8.1 mph - N/A   Clear
2:15 PM 33.8 °F 27.0 °F 24.8 °F 70% 29.57 in 8.0 mi WSW 8.1 mph - N/A   Clear
2:35 PM 33.8 °F 27.0 °F 26.6 °F 75% 29.56 in 8.0 mi WSW 8.1 mph - N/A   Clear
2:55 PM 33.8 °F 26.4 °F 26.6 °F 75% 29.56 in 7.0 mi WSW 9.2 mph - N/A   Clear
3:15 PM 33.8 °F 28.6 °F 26.6 °F 75% 29.56 in 8.0 mi WSW 5.8 mph - N/A   Scattered Clouds
3:35 PM 33.8 °F 27.7 °F 26.6 °F 75% 29.56 in 7.0 mi WSW 6.9 mph - N/A   Overcast
3:55 PM 33.8 °F 27.7 °F 26.6 °F 75% 29.56 in 7.0 mi SW 6.9 mph - N/A   Overcast
4:15 PM 33.8 °F 29.6 °F 26.6 °F 75% 29.56 in 6.0 mi WSW 4.6 mph - N/A   Overcast
4:35 PM 33.8 °F 28.6 °F 26.6 °F 75% 29.56 in 6.0 mi WSW 5.8 mph - N/A   Overcast
4:55 PM 33.8 °F 27.7 °F 26.6 °F 75% 29.55 in 5.0 mi WSW 6.9 mph - N/A   Overcast
5:15 PM 33.8 °F 25.3 °F 28.4 °F 81% 29.55 in 7.0 mi West 11.5 mph - N/A   Overcast
5:35 PM 37.4 °F 25.9 °F 30.2 °F 75% 29.56 in 10.0 mi West 25.3 mph 33.4 mph N/A   Overcast
5:55 PM - - - N/A% 29.56 in 10.0 mi WNW 29.9 mph 36.8 mph N/A   Mostly Cloudy
6:15 PM 30.2 °F 16.2 °F 24.8 °F 80% 29.59 in 10.0 mi WNW 25.3 mph 35.7 mph N/A   Scattered Clouds
6:35 PM 26.6 °F 12.4 °F 19.4 °F 74% 29.61 in 10.0 mi WNW 21.9 mph 33.4 mph N/A   Partly Cloudy
6:55 PM 24.8 °F 10.7 °F 15.8 °F 69% 29.63 in 10.0 mi NW 19.6 mph 35.7 mph N/A   Clear
7:15 PM 24.8 °F 11.5 °F 15.8 °F 69% 29.63 in 10.0 mi NW 17.3 mph 25.3 mph N/A   Clear
7:35 PM 23.0 °F 9.2 °F 14.0 °F 68% 29.63 in 10.0 mi WNW 17.3 mph 21.9 mph N/A   Partly Cloudy
7:55 PM 21.2 °F 5.6 °F 14.0 °F 74% 29.63 in 10.0 mi West 20.7 mph - N/A   Clear
8:15 PM 21.2 °F 4.9 °F 12.2 °F 68% 29.64 in 10.0 mi WNW 23.0 mph 29.9 mph N/A   Clear
8:35 PM 19.4 °F 2.5 °F 12.2 °F 74% 29.64 in 10.0 mi WNW 23.0 mph 31.1 mph N/A   Clear
8:55 PM 19.4 °F 1.8 °F 12.2 °F 74% 29.65 in 10.0 mi WNW 25.3 mph 29.9 mph N/A   Clear
9:15 PM 17.6 °F 0.1 °F 10.4 °F 73% 29.65 in 10.0 mi WNW 23.0 mph - N/A   Clear
9:35 PM 17.6 °F 0.5 °F 10.4 °F 73% 29.66 in 10.0 mi WNW 21.9 mph 31.1 mph N/A   Clear
9:55 PM 17.6 °F 2.7 °F 10.4 °F 73% 29.66 in 10.0 mi WNW 16.1 mph - N/A   Clear
10:15 PM 17.6 °F 2.2 °F 8.6 °F 68% 29.66 in 10.0 mi WNW 17.3 mph - N/A   Clear
10:35 PM 15.8 °F -0.6 °F 8.6 °F 73% 29.67 in 10.0 mi WNW 18.4 mph - N/A   Clear
10:55 PM 15.8 °F -1.1 °F 8.6 °F 73% 29.67 in 10.0 mi WNW 19.6 mph - N/A   Clear
11:15 PM 15.8 °F -0.6 °F 8.6 °F 73% 29.67 in 10.0 mi WNW 18.4 mph - N/A   Clear
11:35 PM 15.8 °F 3.4 °F 6.8 °F 68% 29.67 in 10.0 mi NW 10.4 mph - N/A   Clear
11:55 PM 14.0 °F 1.2 °F 6.8 °F 73% 29.66 in 10.0 mi NW 10.4 mph 20.7 mph N/A   Clear